[[{"header":{"parameterUnit":"m.s-1","parameterCategory":1,"la1":30.2991,"la2":30.254,"lo1":-89.0895,"lo2":-89.0444,"dx":0.0017,"dy":0.0017,"nx":28,"ny":28,"refTime":"2023-02-06T09:00:00:Z","depth":0,"parameterNumber":2,"parameterNumberName":"U-component_of_WINDS"},"data":[0,0,0,0,0,0,0,0,0,0,0,0,0,0,0,0,0,0,0,0,0,0,0,0,0,0,0,0,0,0,0,0,0,0,0,0,0,0,0,0,0,0,0,0,0,0,0,0,0,0,0,0,0,0,0,0,0,0,-4.6457,-4.6458,0,-4.6548,-4.655,-4.6551,-4.6532,-4.653,-4.6529,-4.6527,-4.6621,-4.6625,-4.6629,0,0,0,0,0,0,0,0,0,0,0,0,0,-4.6266,-4.627,-4.6456,-4.6458,-4.6459,-4.6548,-4.655,-4.6551,-4.6532,-4.653,-4.6528,-4.6526,-4.662,-4.6625,-4.6629,0,0,0,0,0,0,0,0,0,0,0,0,0,-4.6353,-4.6271,-4.6456,-4.646,-4.6462,-4.6548,-4.655,-4.6551,-4.6533,-4.653,-4.6528,-4.6525,-4.6618,-4.6624,-4.663,-4.6718,0,0,-4.6649,-4.6651,0,0,0,0,0,0,0,0,-4.6348,-4.636,-4.6459,-4.646,-4.6462,-4.6526,-4.6517,-4.6607,-4.6533,-4.6506,-4.6527,-4.6524,-4.6592,-4.66,-4.6622,-4.6723,-4.6727,-4.6649,-4.6653,-4.6656,-4.6657,0,0,0,0,0,0,0,-4.6342,-4.6355,-4.6493,-4.646,-4.6462,-4.6458,-4.6467,-4.6534,-4.6562,-4.6508,-4.6507,-4.6518,-4.6592,-4.6617,-4.6625,-4.6728,-4.6649,-4.6655,-4.6658,-4.6661,-4.6907,-4.691,0,0,0,0,0,0,-4.6334,-4.6351,-4.649,-4.6496,-4.6397,-4.6463,-4.6474,-4.6508,-4.6561,-4.6566,-4.652,-4.6517,-4.6607,-4.6617,-4.6628,-4.6735,-4.6656,-4.6661,-4.6665,-4.6904,-4.6908,-4.6911,0,0,0,0,0,0,-4.633,-4.6347,-4.6486,-4.6423,-4.644,-4.6469,-4.6508,-4.6511,-4.6536,-4.657,-4.6575,-4.654,-4.6606,-4.6619,-4.6696,-4.6738,-4.6664,-4.667,-4.6901,-4.6905,-4.6909,-4.6949,0,0,0,0,0,0,-4.6325,-4.6345,-4.6379,-4.6424,-4.6444,-4.6553,-4.651,-4.6515,-4.6546,-4.6543,-4.659,-4.6595,-4.6605,-4.6687,-4.6702,-4.6745,-4.6674,-4.6897,-4.6903,-4.6908,-4.6944,-4.6954,-4.6963,0,0,0,0,0,-4.6318,-4.6386,-4.638,-4.6397,-4.6486,-4.6555,-4.6566,-4.6576,-4.655,-4.6584,-4.6606,-4.6594,-4.6731,-4.6695,-4.6712,-4.6757,-4.6895,-4.6901,-4.6907,-4.694,-4.6952,-4.6962,0,0,0,0,0,0,-4.6344,-4.6392,-4.6386,-4.647,-4.6509,-4.6552,-4.6594,-4.6588,-4.6635,-4.663,-4.664,-4.6651,-4.6729,-4.6751,-4.671,-4.6846,-4.6809,-4.6819,-4.6828,-4.684,-4.6849,-4.6841,-4.668,0,0,0,0,0,-4.636,-4.6412,-4.6451,-4.6521,-4.6541,-4.6565,-4.6595,-4.66,-4.664,-4.6656,-4.6684,-4.6723,-4.6775,-4.6809,-4.6859,-4.6948,-4.6958,-4.6988,-4.6997,-4.7004,-4.7012,-4.7062,-4.7075,-4.6932,-4.6932,-4.6932,0,0,-4.6392,-4.6425,-4.6457,-4.6528,-4.6558,-4.6612,-4.6578,-4.6636,-4.6677,-4.6664,-4.6738,-4.6761,-4.6806,-4.689,-4.6928,-4.691,-4.7055,-4.7013,-4.7018,-4.7022,-4.707,-4.7083,-4.7095,-4.6936,-4.6936,-4.6935,0,0,-4.6478,-4.6509,-4.6571,-4.6603,-4.6649,-4.6665,-4.668,-4.6725,-4.6739,-4.6814,-4.6807,-4.6855,-4.6945,-4.6977,-4.7006,-4.7108,-4.7098,-4.7124,-4.7172,-4.722,-4.7231,-4.7241,-4.7277,-4.729,-4.7133,-4.7133,-4.7133,0,-4.6512,-4.6593,-4.6604,-4.6663,-4.6695,-4.6688,-4.6751,-4.6782,-4.6842,-4.6864,-4.6845,-4.6958,-4.6988,-4.7079,-4.7104,-4.7128,-4.7145,-4.7117,-4.7229,-4.7239,-4.7248,-4.7283,-4.7296,-4.7135,-4.7135,-4.7135,-4.7135,0,-4.6633,-4.6689,-4.6734,-4.6793,-4.6831,-4.6892,-4.6912,-4.6949,-4.6951,-4.6969,-4.7047,-4.7083,-4.714,-4.7163,-4.7165,-4.7255,-4.7243,-4.7226,-4.7189,-4.7264,-4.7297,-4.731,-4.7139,-4.7138,-4.7137,-4.7137,0,0,-4.6734,-4.6801,-4.6817,-4.6844,-4.6897,-4.6941,-4.7003,-4.706,-4.7091,-4.7134,-4.7186,-4.7263,-4.7249,-4.7281,-4.7287,-4.733,-4.7408,-4.7308,-4.7309,-4.7324,-4.751,-4.7521,-4.7536,-4.7404,-4.7406,-4.7408,-4.7506,0,-4.6825,-4.6933,-4.6946,-4.7043,-4.7095,-4.7091,-4.7145,-4.7184,-4.7203,-4.7251,-4.7273,-4.7327,-4.7304,-4.7324,-4.7366,-4.739,-4.7445,-4.7383,-4.7452,-4.7454,-4.7438,-4.7553,-4.7564,-4.7654,-4.7518,-4.7521,-4.7522,0,-4.6943,-4.699,-4.7092,-4.7139,-4.7162,-4.721,-4.7264,-4.731,-4.7354,-4.7366,-4.7403,-4.7405,-4.747,-4.7432,-4.7522,-4.7479,-4.7509,-4.7526,-4.7529,-4.7534,-4.7491,-4.7559,-4.7683,-4.7695,-4.7542,-4.7541,-4.7539,0,-4.7006,-4.7095,-4.7168,-4.7192,-4.7248,-4.7282,-4.7308,-4.735,-4.7383,-4.7431,-4.7453,-4.7508,-4.7538,-4.758,-4.7597,-4.7569,-4.7686,-4.765,-4.7697,-4.7697,-4.772,-4.7718,-4.7848,-4.7742,-4.7742,-4.7742,-4.7741,0,-4.7104,-4.7166,-4.7197,-4.7241,-4.7312,-4.7327,-4.7396,-4.742,-4.7458,-4.7508,-4.7509,-4.7555,-4.7576,-4.7626,-4.764,-4.7712,-4.7726,-4.7737,-4.774,-4.7736,-4.7734,-4.7753,-4.7747,-4.7745,-4.7745,-4.7744,-4.7743,0,-4.7184,-4.7207,-4.7286,-4.7334,-4.7348,-4.7398,-4.7439,-4.7483,-4.7503,-4.7566,-4.7582,-4.7614,-4.7673,-4.7695,-4.7768,-4.7777,-4.786,-4.7859,-4.7845,-4.7845,-4.789,-4.7885,-4.8036,-4.8056,-4.7939,-4.794,-4.7941,0,-4.7243,-4.7291,-4.7345,-4.7379,-4.7406,-4.7459,-4.7494,-4.7513,-4.7549,-4.7605,-4.7642,-4.7702,-4.7749,-4.7845,-4.7875,-4.7931,-4.7929,-4.7979,-4.7937,-4.7933,-4.7929,-4.7925,-4.7929,-4.7985,-4.7986,-4.7987,-4.7988,0,-4.7347,-4.7357,-4.7407,-4.7462,-4.7504,-4.7548,-4.7591,-4.7619,-4.7644,-4.7685,-4.7746,-4.7784,-4.7859,-4.7917,-4.7975,-4.8002,-4.7999,-4.8001,-4.8015,-4.801,-4.8,-4.8005,-4.7864,-4.7997,-4.7996,-4.7995,-4.7995,-4.7995,-4.7417,-4.746,-4.7505,-4.7562,-4.7597,-4.7638,-4.7681,-4.7708,-4.7759,-4.7821,-4.783,-4.7895,-4.7941,-4.8018,-4.8048,-4.81,-4.8086,-4.8106,-4.8111,-4.8115,-4.8118,-4.7994,-4.8111,-4.811,-4.811,-4.811,-4.811,0,-4.7519,-4.7549,-4.7601,-4.7662,-4.7707,-4.7702,-4.7751,-4.7788,-4.7846,-4.7889,-4.7937,-4.8008,-4.8066,-4.8101,-4.816,-4.8195,-4.8195,-4.8209,-4.8206,-4.8212,-4.8127,-4.8108,-4.8208,-4.8208,-4.8208,-4.8208,-4.8208,-4.8208,-4.7577,-4.765,-4.7665,-4.7756,-4.7785,-4.7849,-4.7877,-4.7915,-4.7949,-4.8029,-4.8077,-4.81,-4.8141,-4.8203,-4.8256,-4.8265,-4.8286,-4.8301,-4.8309,-4.8228,-4.8218,-4.8208,-4.8191,-4.8306,-4.8306,-4.839,-4.8391,-4.8391]},{"header":{"parameterUnit":"m.s-1","parameterCategory":1,"la1":30.2991,"la2":30.254,"lo1":-89.0895,"lo2":-89.0444,"dx":0.0017,"dy":0.0017,"nx":28,"ny":28,"refTime":"2023-02-06T09:00:00:Z","depth":0,"parameterNumber":3,"parameterNumberName":"V-component_of_WINDS"},"data":[0,0,0,0,0,0,0,0,0,0,0,0,0,0,0,0,0,0,0,0,0,0,0,0,0,0,0,0,0,0,0,0,0,0,0,0,0,0,0,0,0,0,0,0,0,0,0,0,0,0,0,0,0,0,0,0,0,0,2.249,2.2491,0,2.2548,2.2548,2.2549,2.2582,2.2583,2.2583,2.2583,2.2638,2.2639,2.264,0,0,0,0,0,0,0,0,0,0,0,0,0,2.2409,2.241,2.249,2.2491,2.2492,2.2548,2.2548,2.2549,2.2582,2.2583,2.2583,2.2583,2.2637,2.2639,2.2641,0,0,0,0,0,0,0,0,0,0,0,0,0,2.2453,2.241,2.249,2.2515,2.2518,2.2548,2.2549,2.2549,2.2582,2.2583,2.2583,2.2583,2.2637,2.2639,2.2641,2.2649,0,0,2.2647,2.2648,0,0,0,0,0,0,0,0,2.245,2.2456,2.2511,2.2514,2.2517,2.2558,2.254,2.2583,2.2582,2.2558,2.2583,2.2583,2.2611,2.2615,2.2625,2.2651,2.2654,2.2647,2.2648,2.2649,2.265,0,0,0,0,0,0,0,2.2447,2.2453,2.2513,2.2512,2.2515,2.2523,2.253,2.2548,2.2582,2.256,2.2563,2.2569,2.2613,2.2623,2.2627,2.2655,2.2647,2.2649,2.265,2.2651,2.2694,2.2694,0,0,0,0,0,0,2.244,2.2451,2.2511,2.2515,2.2483,2.2525,2.2532,2.2545,2.2582,2.2588,2.2569,2.257,2.262,2.2624,2.2629,2.2643,2.2649,2.2651,2.2652,2.2694,2.2694,2.2694,0,0,0,0,0,0,2.2439,2.2445,2.2509,2.2484,2.2492,2.2526,2.254,2.2546,2.2556,2.2589,2.2595,2.2574,2.262,2.2626,2.2645,2.2646,2.2652,2.2654,2.2694,2.2694,2.2694,2.2671,0,0,0,0,0,0,2.2436,2.2445,2.2448,2.2483,2.2493,2.2524,2.254,2.2547,2.256,2.2563,2.2595,2.2601,2.2621,2.2642,2.2647,2.2649,2.2655,2.2694,2.2694,2.2694,2.2672,2.267,2.2668,0,0,0,0,0,2.2433,2.2437,2.2448,2.2455,2.2498,2.2524,2.253,2.2554,2.256,2.2564,2.2586,2.26,2.2645,2.2643,2.2649,2.2652,2.2694,2.2694,2.2694,2.2672,2.267,2.2668,0,0,0,0,0,0,2.2399,2.2442,2.2454,2.247,2.2494,2.2529,2.2535,2.255,2.2571,2.2572,2.26,2.2607,2.2624,2.2639,2.2637,2.2663,2.2671,2.2672,2.2653,2.2651,2.2649,2.2645,2.2657,0,0,0,0,0,2.2393,2.2411,2.2448,2.2459,2.247,2.25,2.2512,2.253,2.2554,2.2563,2.2586,2.2608,2.2628,2.264,2.266,2.2674,2.2683,2.2679,2.2677,2.2676,2.2677,2.2688,2.2688,2.2694,2.2694,2.2694,0,0,2.2382,2.2408,2.2417,2.2453,2.2472,2.2491,2.2508,2.2525,2.2539,2.2565,2.2586,2.2603,2.263,2.2648,2.2657,2.2661,2.2677,2.2676,2.2674,2.2676,2.2688,2.2688,2.2687,2.2694,2.2694,2.2694,0,0,2.237,2.2391,2.2404,2.2425,2.2456,2.2477,2.248,2.2514,2.2528,2.2549,2.257,2.2587,2.2619,2.2639,2.2653,2.2653,2.2667,2.2658,2.265,2.2661,2.2661,2.2661,2.2663,2.2663,2.2659,2.2659,2.2659,0,2.2352,2.238,2.2408,2.2426,2.2442,2.2469,2.2483,2.2501,2.2536,2.2546,2.2551,2.2596,2.2615,2.2639,2.264,2.265,2.2655,2.2655,2.2659,2.2659,2.2659,2.2661,2.2662,2.2658,2.2658,2.2658,2.2658,0,2.2357,2.2377,2.2384,2.242,2.2436,2.2452,2.2482,2.2496,2.2512,2.2533,2.2555,2.2581,2.2608,2.2615,2.2629,2.2641,2.2644,2.2653,2.2662,2.2657,2.266,2.2661,2.2656,2.2656,2.2657,2.2657,0,0,2.2323,2.2378,2.238,2.2398,2.2436,2.2452,2.2469,2.2498,2.251,2.2534,2.255,2.2579,2.2589,2.2605,2.2623,2.2633,2.2634,2.2642,2.2643,2.2641,2.2652,2.2645,2.2646,2.2644,2.2645,2.2645,2.265,0,2.2319,2.2353,2.2381,2.2404,2.2424,2.2452,2.2468,2.2493,2.2513,2.2533,2.2555,2.2576,2.2587,2.2598,2.2608,2.2632,2.2637,2.2632,2.266,2.2661,2.2654,2.2647,2.2639,2.2643,2.2651,2.2652,2.2652,0,2.2317,2.2344,2.237,2.241,2.2419,2.2432,2.2463,2.2481,2.2511,2.2525,2.2545,2.2565,2.2585,2.2592,2.2622,2.2617,2.2631,2.2644,2.2645,2.2649,2.2656,2.2652,2.2645,2.2646,2.2653,2.2653,2.2653,0,2.2293,2.2334,2.2357,2.2371,2.2417,2.2426,2.2446,2.2476,2.2492,2.2518,2.253,2.2557,2.2572,2.2592,2.2619,2.2621,2.2647,2.2655,2.266,2.2659,2.2664,2.2663,2.266,2.2671,2.2671,2.2671,2.2671,0,2.2285,2.2301,2.2347,2.2361,2.238,2.2411,2.2429,2.2451,2.2478,2.2497,2.2522,2.2539,2.2572,2.2594,2.2614,2.2637,2.2643,2.2656,2.2661,2.2654,2.2653,2.2664,2.2665,2.2671,2.2671,2.2671,2.2671,0,2.2261,2.2292,2.2319,2.2361,2.2373,2.2385,2.2421,2.2436,2.2459,2.2483,2.249,2.2526,2.2553,2.2582,2.2617,2.2631,2.2653,2.266,2.2644,2.2647,2.2651,2.2651,2.2655,2.2658,2.2665,2.2665,2.2665,0,2.2254,2.2268,2.2313,2.2328,2.2348,2.2372,2.239,2.2422,2.244,2.2477,2.2487,2.2517,2.2542,2.2583,2.2612,2.264,2.2649,2.2648,2.2653,2.2646,2.2651,2.265,2.2653,2.2647,2.2646,2.2646,2.2646,0,2.224,2.2256,2.2282,2.2314,2.2336,2.2362,2.2389,2.24,2.2438,2.2456,2.2485,2.2505,2.2543,2.2572,2.2605,2.2624,2.2642,2.2645,2.2648,2.2641,2.2632,2.2639,2.2641,2.2644,2.2645,2.2645,2.2645,2.2645,2.2226,2.224,2.2276,2.2304,2.2329,2.2355,2.2372,2.2399,2.2424,2.2459,2.2476,2.2506,2.2538,2.2583,2.2603,2.2626,2.2632,2.2635,2.2636,2.2637,2.2636,2.2628,2.2632,2.2632,2.2632,2.2632,2.2632,0,2.2215,2.224,2.2266,2.2305,2.2328,2.2345,2.2377,2.2395,2.2421,2.245,2.2476,2.251,2.2539,2.2572,2.2603,2.2616,2.2625,2.2623,2.2623,2.2628,2.2629,2.2624,2.2615,2.2615,2.2615,2.2615,2.2615,2.2615,2.2211,2.2238,2.2259,2.2298,2.2323,2.2354,2.2371,2.2395,2.2419,2.2457,2.2483,2.2505,2.2536,2.257,2.2598,2.2607,2.2618,2.2614,2.2625,2.2626,2.2627,2.2628,2.2624,2.2616,2.2616,2.2622,2.2623,2.2623]}]]